This is the latest recevied weather packets stored in our database for station/object K9VSK-9. If no packets are shown the sender has not sent any weather packets the latest 1 day(s).
| Time | Temp. | Humidity | Pressure | Rain* | Wind** | Luminosity | Snow |
|---|---|---|---|---|---|---|---|
| 1778008156 | 11.11° C | 65% | 1011.3 hPa | 0 mm | 1.34 m/s, 282° | - | - |
| 1778007855 | 11.11° C | 65% | 1011.4 hPa | 0 mm | 1.79 m/s, 296° | - | - |
| 1778007555 | 11.11° C | 59% | 1011.5 hPa | 0 mm | 1.79 m/s, 355° | - | - |
| 1778007255 | 11.11° C | 59% | 1011.5 hPa | 0 mm | 1.79 m/s, 355° | - | - |
| 1778006955 | 11.11° C | 59% | 1011.5 hPa | 0 mm | 1.79 m/s, 355° | - | - |
| 1778006654 | 11.11° C | 59% | 1011.5 hPa | 0 mm | 1.79 m/s, 355° | - | - |
| 1778006354 | 11.11° C | 59% | 1011.5 hPa | 0 mm | 1.79 m/s, 355° | - | - |
| 1778006054 | 11.11° C | 59% | 1011.5 hPa | 0 mm | 1.79 m/s, 355° | - | - |
| 1778005754 | 11.11° C | 59% | 1011.5 hPa | 0 mm | 1.79 m/s, 355° | - | - |
| 1778005453 | 11.11° C | 59% | 1011.5 hPa | 0 mm | 1.79 m/s, 355° | - | - |
| 1778005153 | 11.11° C | 59% | 1011.5 hPa | 0 mm | 1.79 m/s, 355° | - | - |
| 1778004853 | 11.11° C | 59% | 1011.5 hPa | 0 mm | 1.79 m/s, 355° | - | - |
| 1778004552 | 11.11° C | 61% | 1011.5 hPa | 0 mm | 0.89 m/s, 311° | - | - |
| 1778004252 | 11.11° C | 61% | 1011.5 hPa | 0 mm | 1.79 m/s, 32° | - | - |
| 1778003952 | 11.11° C | 59% | 1011.6 hPa | 0 mm | 1.79 m/s, 34° | - | - |
| 1778003651 | 11.11° C | 59% | 1011.5 hPa | 0 mm | 1.79 m/s, 360° | - | - |
| 1778003351 | 11.11° C | 60% | 1011.5 hPa | 0 mm | 2.24 m/s, 10° | - | - |
| 1778003051 | 11.67° C | 61% | 1011.3 hPa | 0 mm | 1.79 m/s, 360° | - | - |
| 1778002751 | 11.67° C | 61% | 1011.3 hPa | 0 mm | 1.79 m/s, 360° | - | - |
| 1778002450 | 11.11° C | 61% | 1011.4 hPa | 0 mm | 1.34 m/s, 360° | - | - |
| 1778002150 | 11.67° C | 61% | 1011.3 hPa | 0 mm | 1.34 m/s, 360° | - | - |
| 1778001850 | 11.67° C | 61% | 1011.3 hPa | 0 mm | 0.89 m/s, 360° | - | - |
| 1778001550 | 12.22° C | 63% | 1011.2 hPa | 0 mm | 3.58 m/s, 360° | - | - |
| 1778001249 | 12.22° C | 62% | 1011.1 hPa | 0 mm | 0.45 m/s, 360° | - | - |
| 1778000949 | 12.22° C | 61% | 1011 hPa | 0 mm | 0.45 m/s, 360° | - | - |
* Rain latest hour (hover to see other rain measurements)
** Current wind speed in m/s (hover to see current wind gust speed)